Location: Unspecified
(0.0000°N, 0.0000°E)
Time: 11:30:13
(UTC+00:00)

Vanguard 3 - Pass Details

Date: 26 November 2019
Orbit: 508 x 3263 km, 33.3° (Epoch: 07 December)

Event Time Altitude Azimuth Distance (km) Brightness Sun altitude
Rises 21:38:47 0° 286° (WNW) 5,521 11.7 -52.2°
Reaches altitude 10° 21:43:46 10° 276° (W) 3,989 10.9 -53.2°
Enters shadow 21:47:38 20° 260° (W) 2,869 10.2 -54.0°
Maximum altitude 21:51:31 27° 223° (SW) 2,104 - -54.8°
Drops below altitude 10° 21:56:35 10° 166° (SSE) 2,518 - -55.7°
Sets 21:59:00 0° 153° (SSE) 3,196 - -56.2°
